• In Italy
  • List of Countries
  • For 7 days
  • Water Temperature
  • Satellite Maps
  • Weather Map
  • Weather Widgets
  • user-avatar
    Login

    Hourly Weather Kipungo

    Today, 19 November, Sunday

    Time Temperature Precipitation Wind Pressure Humidity
    00:00 +25°C° 0 mm 2 mps 653 mmHg 37%
    01:00 +23°C° 0 mm 1 mps 653 mmHg 42%
    02:00 +23°C° 0 mm 2 mps 653 mmHg 43%
    03:00 +23°C° 0 mm 2 mps 652 mmHg 43%
    04:00 +21°C° 0 mm 2 mps 652 mmHg 44%
    05:00 +23°C° 0 mm 1 mps 653 mmHg 42%
    06:00 +24°C° 0 mm 1 mps 653 mmHg 39%
    07:00 +25°C° 0 mm 1 mps 654 mmHg 37%
    08:00 +29°C° 0 mm 1 mps 655 mmHg 31%
    09:00 +31°C° 0 mm 0 mps 656 mmHg 26%
    10:00 +35°C° 0 mm 0 mps 657 mmHg 21%
    11:00 +36°C° 0 mm 1 mps 656 mmHg 21%
    12:00 +35°C° 0 mm 1 mps 655 mmHg 20%
    13:00 +35°C° 0 mm 2 mps 654 mmHg 20%
    14:00 +35°C° 0 mm 2 mps 654 mmHg 22%
    15:00 +34°C° 0 mm 2 mps 653 mmHg 23%
    16:00 +34°C° 0 mm 2 mps 653 mmHg 25%
    17:00 +31°C° 0 mm 1 mps 653 mmHg 28%
    18:00 +30°C° 0 mm 1 mps 653 mmHg 31%
    19:00 +28°C° 0 mm 1 mps 653 mmHg 35%
    20:00 +27°C° 0.1 mm 1 mps 653 mmHg 38%
    21:00 +26°C° 0.1 mm 2 mps 653 mmHg 41%
    22:00 +25°C° 0.1 mm 2 mps 654 mmHg 44%
    23:00 +24°C° 0 mm 2 mps 653 mmHg 46%

    Tomorrow, 20 November, Monday

    Time Temperature Precipitation Wind Pressure Humidity
    00:00 +23°C° 0 mm 2 mps 653 mmHg 47%
    01:00 +21°C° 0 mm 2 mps 653 mmHg 48%
    02:00 +20°C° 0 mm 2 mps 652 mmHg 49%
    03:00 +21°C° 0 mm 1 mps 652 mmHg 51%
    04:00 +20°C° 0 mm 1 mps 652 mmHg 52%
    05:00 +21°C° 0 mm 1 mps 653 mmHg 48%
    06:00 +23°C° 0 mm 1 mps 653 mmHg 45%
    07:00 +24°C° 0 mm 1 mps 654 mmHg 42%
    08:00 +27°C° 0 mm 1 mps 655 mmHg 34%
    09:00 +31°C° 0 mm 1 mps 656 mmHg 27%
    10:00 +35°C° 0 mm 1 mps 657 mmHg 20%
    11:00 +36°C° 0 mm 1 mps 657 mmHg 19%
    12:00 +39°C° 0 mm 1 mps 656 mmHg 18%
    13:00 +40°C° 0 mm 1 mps 656 mmHg 16%
    14:00 +37°C° 0 mm 1 mps 655 mmHg 19%
    15:00 +35°C° 0 mm 1 mps 654 mmHg 21%
    16:00 +34°C° 0 mm 2 mps 653 mmHg 23%
    17:00 +31°C° 0 mm 2 mps 653 mmHg 26%
    18:00 +30°C° 0 mm 2 mps 654 mmHg 28%
    19:00 +29°C° 0 mm 2 mps 654 mmHg 31%
    20:00 +27°C° 0 mm 2 mps 654 mmHg 35%
    21:00 +26°C° 0 mm 2 mps 654 mmHg 39%
    22:00 +24°C° 0 mm 2 mps 654 mmHg 43%
    23:00 +24°C° 0 mm 2 mps 654 mmHg 44%

    Day after tomorrow, 21 November, Tuesday

    Time Temperature Precipitation Wind Pressure Humidity
    00:00 +23°C° 0 mm 2 mps 654 mmHg 45%
    01:00 +21°C° 0 mm 2 mps 653 mmHg 47%
    02:00 +22°C° 0 mm 1 mps 653 mmHg 47%
    03:00 +21°C° 0 mm 1 mps 653 mmHg 48%
    04:00 +21°C° 0 mm 1 mps 652 mmHg 49%
    05:00 +22°C° 0 mm 1 mps 653 mmHg 46%
    06:00 +24°C° 0 mm 1 mps 654 mmHg 42%
    07:00 +25°C° 0 mm 1 mps 655 mmHg 39%
    08:00 +28°C° 0 mm 1 mps 655 mmHg 32%
    09:00 +31°C° 0 mm 1 mps 656 mmHg 26%
    10:00 +34°C° 0 mm 1 mps 657 mmHg 19%
    11:00 +36°C° 0 mm 1 mps 656 mmHg 18%
    12:00 +37°C° 0 mm 1 mps 656 mmHg 16%
    13:00 +40°C° 0 mm 1 mps 655 mmHg 14%
    14:00 +37°C° 0 mm 1 mps 654 mmHg 16%
    15:00 +35°C° 0 mm 1 mps 653 mmHg 17%
    16:00 +35°C° 0 mm 2 mps 652 mmHg 19%
    17:00 +32°C° 0 mm 2 mps 653 mmHg 21%
    18:00 +31°C° 0 mm 2 mps 653 mmHg 23%
    19:00 +29°C° 0 mm 3 mps 653 mmHg 25%
    20:00 +28°C° 0 mm 3 mps 653 mmHg 28%
    21:00 +26°C° 0 mm 3 mps 654 mmHg 31%
    22:00 +25°C° 0 mm 3 mps 654 mmHg 34%
    23:00 +24°C° 0 mm 3 mps 653 mmHg 37%

    22 November, Wednesday

    Time Temperature Precipitation Wind Pressure Humidity
    00:00 +23°C° 0 mm 2 mps 653 mmHg 39%
    01:00 +21°C° 0 mm 2 mps 653 mmHg 41%
    02:00 +21°C° 0 mm 2 mps 652 mmHg 43%
    03:00 +21°C° 0 mm 1 mps 652 mmHg 46%
    04:00 +20°C° 0 mm 1 mps 652 mmHg 48%
    05:00 +22°C° 0 mm 1 mps 653 mmHg 44%
    06:00 +23°C° 0 mm 1 mps 654 mmHg 40%
    07:00 +25°C° 0 mm 1 mps 654 mmHg 37%
    08:00 +27°C° 0 mm 2 mps 655 mmHg 31%
    09:00 +30°C° 0 mm 2 mps 655 mmHg 26%
    10:00 +34°C° 0 mm 3 mps 656 mmHg 20%
    11:00 +35°C° 0 mm 3 mps 655 mmHg 19%
    12:00 +36°C° 0 mm 2 mps 655 mmHg 17%
    13:00 +37°C° 0 mm 2 mps 654 mmHg 16%
    14:00 +36°C° 0 mm 2 mps 653 mmHg 17%
    15:00 +35°C° 0 mm 2 mps 653 mmHg 19%
    16:00 +33°C° 0 mm 1 mps 652 mmHg 20%
    17:00 +31°C° 0 mm 2 mps 652 mmHg 23%
    18:00 +30°C° 0 mm 2 mps 653 mmHg 27%
    19:00 +28°C° 0 mm 2 mps 653 mmHg 30%
    20:00 +27°C° 0 mm 2 mps 653 mmHg 33%
    21:00 +26°C° 0 mm 2 mps 653 mmHg 37%
    22:00 +25°C° 0 mm 2 mps 653 mmHg 40%
    23:00 +24°C° 0 mm 2 mps 653 mmHg 44%

    23 November, Thursday

    Time Temperature Precipitation Wind Pressure Humidity
    00:00 +23°C° 0 mm 2 mps 652 mmHg 48%
    01:00 +21°C° 0 mm 2 mps 652 mmHg 51%
    02:00 +22°C° 0 mm 1 mps 652 mmHg 53%
    03:00 +21°C° 0 mm 1 mps 652 mmHg 54%
    04:00 +21°C° 0 mm 1 mps 651 mmHg 56%
    05:00 +22°C° 0 mm 1 mps 652 mmHg 52%
    06:00 +23°C° 0 mm 1 mps 653 mmHg 49%
    07:00 +25°C° 0 mm 1 mps 654 mmHg 45%
    08:00 +27°C° 0 mm 1 mps 654 mmHg 37%
    09:00 +30°C° 0 mm 1 mps 655 mmHg 29%
    10:00 +34°C° 0 mm 2 mps 655 mmHg 21%
    11:00 +33°C° 0 mm 1 mps 654 mmHg 21%
    12:00 +33°C° 0 mm 1 mps 653 mmHg 21%
    13:00 +33°C° 0 mm 1 mps 652 mmHg 21%
    14:00 +32°C° 0 mm 1 mps 652 mmHg 24%
    15:00 +30°C° 0 mm 2 mps 651 mmHg 27%
    16:00 +29°C° 0 mm 3 mps 651 mmHg 31%
    17:00 +28°C° 0 mm 2 mps 651 mmHg 33%
    18:00 +27°C° 0 mm 2 mps 651 mmHg 36%
    19:00 +26°C° 0 mm 1 mps 652 mmHg 38%
    20:00 +25°C° 0 mm 1 mps 652 mmHg 40%
    21:00 +24°C° 0 mm 2 mps 652 mmHg 42%
    22:00 +24°C° 0 mm 2 mps 653 mmHg 43%
    23:00 +23°C° 0 mm 2 mps 652 mmHg 47%

    24 November, Friday

    Time Temperature Precipitation Wind Pressure Humidity
    00:00 +22°C° 0 mm 1 mps 652 mmHg 51%
    01:00 +21°C° 0 mm 1 mps 652 mmHg 54%
    02:00 +21°C° 0 mm 1 mps 651 mmHg 56%
    03:00 +21°C° 0 mm 1 mps 651 mmHg 58%
    04:00 +20°C° 0 mm 1 mps 651 mmHg 59%
    05:00 +21°C° 0 mm 1 mps 652 mmHg 56%
    06:00 +21°C° 0 mm 2 mps 652 mmHg 52%
    07:00 +23°C° 0 mm 2 mps 653 mmHg 49%
    08:00 +27°C° 0 mm 2 mps 654 mmHg 39%
    09:00 +30°C° 0 mm 2 mps 654 mmHg 29%
    10:00 +34°C° 0 mm 1 mps 655 mmHg 20%
    11:00 +36°C° 0 mm 2 mps 655 mmHg 18%
    12:00 +37°C° 0 mm 2 mps 654 mmHg 17%
    13:00 +39°C° 0 mm 2 mps 654 mmHg 15%
    14:00 +37°C° 0 mm 2 mps 653 mmHg 16%
    15:00 +36°C° 0 mm 3 mps 652 mmHg 18%
    16:00 +34°C° 0 mm 3 mps 652 mmHg 19%
    17:00 +31°C° 0 mm 3 mps 652 mmHg 23%
    18:00 +29°C° 0 mm 4 mps 652 mmHg 26%
    19:00 +27°C° 0 mm 4 mps 652 mmHg 30%
    20:00 +25°C° 0 mm 3 mps 652 mmHg 35%
    21:00 +24°C° 0 mm 3 mps 652 mmHg 41%
    22:00 +21°C° 0 mm 2 mps 652 mmHg 46%
    23:00 +20°C° 0 mm 2 mps 652 mmHg 51%
    Show more